Wind_Speed
13 13 13 14 15 16 16 17 17 17 18 20 20 21 21 21 21 21 22 23 23 24 24 25 25 26 26 26 27 28 28 28 29 29 30 31 31 32
13 14 14 15 16 17 17 18 18 19 19 20 21 22 22 22 23 23 23 23 23 24 25 25 26 26 27 28 28 29 29 30 30 32 32 33 33 33
13 14 15 16 17 17 18 18 19 19 20 21 22 22 23 24 24 24 24 24 24 25 25 26 26 27 28 29 30 31 31 32 32 33 33 33 34 35
15 15 16 16 17 18 19 19 19 20 21 21 22 23 24 24 25 25 24 25 26 27 27 27 28 29 29 30 31 31 32 32 32 33 34 34 35 35
16 17 17 17 18 19 19 20 20 20 21 23 23 24 24 25 25 25 25 26 26 27 28 28 29 30 30 31 31 31 32 33 33 35 36 36 36 36
17 17 17 18 19 20 20 21 21 22 22 23 23 24 25 26 26 26 27 27 27 28 28 28 29 31 31 32 32 32 32 33 34 35 36 36 37 37
18 18 18 19 20 20 21 22 23 23 23 24 24 25 25 25 26 27 27 27 28 28 28 29 30 31 32 32 33 33 33 33 34 34 35 35 35 36
19 19 20 21 21 21 22 23 23 24 24 24 25 25 25 26 26 27 28 28 28 29 29 29 30 30 31 31 32 32 33 33 33 33 34 35 35 35
20 20 21 22 22 23 23 24 24 24 25 25 26 26 26 26 27 27 28 29 30 30 30 30 30 30 31 31 32 32 32 33 33 34 34 34 33 34
22 22 22 23 24 24 24 24 25 25 26 26 27 27 27 27 28 28 29 30 30 30 30 31 31 31 31 32 32 32 32 33 33 34 34 34 34 34
23 23 24 24 24 24 25 26 26 27 27 27 28 28 29 29 29 30 30 31 31 31 31 31 32 32 32 31 31 32 32 33 33 33 33 33 33 34
24 24 24 25 25 26 27 28 28 28 28 28 28 29 30 30 30 31 31 31 30 30 31 31 31 31 31 31 30 31 31 32 32 32 33 33 33 33
25 25 26 26 27 28 29 29 29 29 29 29 30 30 31 31 31 31 31 30 30 30 31 31 31 31 31 31 30 30 30 31 31 31 31 32 32 32
26 26 27 28 29 29 30 30 30 30 30 30 31 31 31 31 31 31 31 31 30 30 31 31 31 31 31 31 31 31 31 30 30 30 30 30 31 31
27 28 29 29 30 30 30 30 30 30 30 31 31 31 31 31 31 31 30 30 30 30 30 31 31 31 31 31 31 30 30 30 30 30 30 29 29 30
29 29 30 30 30 30 30 30 30 30 31 31 31 31 31 30 30 30 30 30 30 30 30 30 30 30 30 30 30 30 29 29 29 29 29 29 29 28
30 30 30 30 30 30 30 30 30 30 31 31 30 30 30 30 30 30 30 30 30 29 30 30 30 30 29 29 29 29 29 29 29 29 29 29 29 28
30 30 31 30 30 30 30 30 30 31 31 30 30 31 30 30 31 30 30 30 29 29 29 29 29 29 29 29 29 29 29 30 29 29 29 29 28 28
31 31 31 31 31 31 31 31 31 31 31 31 31 31 31 31 31 30 30 29 29 29 29 29 29 29 29 29 29 29 29 30 29 29 29 28 28 27
32 32 32 32 31 31 31 31 31 31 31 31 31 31 31 31 30 30 29 29 29 29 28 28 29 29 29 29 29 29 29 29 29 29 29 28 28 27
32 32 32 33 32 32 32 31 31 31 31 31 31 31 31 30 30 30 29 29 29 29 29 29 29 29 29 29 29 28 28 28 28 28 28 28 27 27
33 33 33 33 33 33 32 31 31 30 30 31 31 31 30 31 31 30 30 30 29 29 29 29 29 29 29 29 29 28 28 28 28 28 28 28 28 27
33 34 34 33 33 32 31 31 31 31 31 31 31 31 31 30 30 30 30 29 30 30 30 30 29 29 29 29 29 29 29 28 28 28 28 27 27 27
Wind_Direction
299 300 301 301 300 302 302 302 299 296 296 296 297 297 296 294 293 291 291 290 287 287 288 288 286 285 285 284 284 283 283 283 282 282 282 281 279 278
300 299 300 301 301 301 302 301 300 298 297 295 295 297 297 294 293 293 293 291 290 291 290 288 287 287 287 285 285 286 285 285 283 283 282 281 280 280
302 301 302 302 302 301 302 303 302 300 300 299 297 296 296 295 295 295 294 292 291 291 290 289 289 289 291 290 288 286 286 285 284 284 283 282 282 281
304 306 306 305 303 302 303 303 303 302 302 303 301 300 300 298 296 295 295 294 292 291 290 289 289 289 292 292 292 291 289 287 285 284 284 283 282 281
304 305 306 306 304 304 304 304 305 305 305 305 304 304 304 302 300 297 296 296 295 294 293 292 292 292 293 293 293 293 291 290 287 286 285 284 283 283
307 307 307 306 304 304 305 305 305 306 306 307 307 305 302 301 300 298 298 298 296 294 293 293 292 293 294 294 294 292 291 291 289 288 287 285 284 283
308 309 309 309 308 306 306 305 306 307 308 307 307 305 303 303 302 301 301 301 299 297 294 294 294 294 294 294 294 293 292 291 291 291 290 289 287 285
307 308 310 311 310 308 307 308 309 309 308 308 307 307 305 304 304 304 303 303 301 300 300 300 299 298 297 295 295 294 293 292 293 294 293 292 291 289
308 309 310 311 310 309 308 309 310 310 309 309 309 309 307 306 305 305 304 304 303 302 302 302 301 300 299 297 296 295 296 295 296 296 295 294 294 293
308 308 308 309 310 309 310 311 311 312 311 310 308 307 307 307 306 306 305 304 303 302 302 302 301 301 300 300 300 298 298 298 298 297 296 294 293 294
307 307 307 308 309 309 309 309 310 310 309 308 307 306 306 306 305 305 305 304 302 301 301 302 302 302 301 301 301 301 300 300 299 298 296 295 294 293
307 307 307 307 308 309 308 309 309 309 309 307 307 306 306 305 304 304 304 304 302 301 301 302 302 302 302 301 302 303 303 302 301 300 298 297 296 296
308 308 307 307 308 308 308 308 308 308 307 307 307 307 306 306 304 304 304 303 303 303 302 302 303 303 302 302 303 303 303 303 303 302 301 300 299 299
308 309 309 309 308 308 308 307 307 307 307 307 307 307 306 306 305 304 304 303 303 304 304 303 303 303 303 302 303 303 302 302 302 302 301 301 301 300
309 309 309 310 309 309 309 309 308 308 308 307 307 307 306 306 306 306 306 305 305 304 304 303 304 303 302 302 302 303 303 303 303 303 302 302 302 301
309 309 309 309 309 309 309 308 308 307 307 308 308 307 307 307 307 308 307 306 306 305 305 305 305 305 305 305 304 304 304 305 305 305 304 304 304 303
308 308 309 309 309 309 309 309 308 308 307 307 307 307 307 307 307 308 308 308 307 306 306 306 306 306 305 305 305 305 306 306 306 305 305 304 304 304
309 309 309 309 310 310 309 308 308 307 307 307 307 307 307 307 307 307 307 307 307 306 306 306 306 306 306 306 306 305 306 305 305 305 305 305 304 304
308 308 309 309 310 310 309 308 308 307 306 306 307 307 307 307 307 307 308 308 308 308 308 308 307 307 307 307 307 307 307 307 307 306 306 305 305 305
307 307 308 309 309 309 309 308 308 307 306 306 307 307 307 307 307 307 308 308 308 309 309 309 309 309 309 309 309 308 308 307 307 307 307 306 306 305
305 306 306 307 308 308 309 308 308 308 307 307 307 308 308 308 308 308 307 307 308 308 309 309 309 309 309 310 310 309 308 308 307 308 307 307 306 305
303 304 305 306 306 307 308 308 308 309 309 309 308 309 309 310 309 308 308 308 308 308 308 309 310 310 309 309 310 310 309 308 308 307 307 307 306 305
301 303 304 305 305 306 306 307 308 308 309 309 309 309 309 309 309 308 308 309 310 310 310 310 310 310 310 310 310 310 309 309 308 308 307 306 305 304
Height
5884 5884 5882 5881 5880 5879 5878 5876 5875 5874 5872 5871 5869 5867 5865 5863 5861 5860 5859 5857 5856 5854 5853 5852 5850 5849 5848 5846 5845 5843 5842 5841 5839 5838 5837 5835 5834 5833
5882 5881 5879 5878 5877 5875 5874 5872 5871 5869 5868 5866 5864 5862 5860 5858 5857 5854 5853 5851 5849 5848 5846 5845 5843 5842 5840 5839 5837 5836 5834 5833 5831 5830 5828 5827 5825 5824
5879 5877 5876 5875 5873 5872 5870 5868 5866 5865 5863 5861 5859 5857 5855 5853 5851 5849 5847 5845 5843 5841 5840 5838 5836 5835 5833 5831 5829 5828 5826 5824 5823 5821 5819 5818 5816 5815
5875 5874 5872 5871 5869 5868 5866 5864 5862 5860 5858 5856 5854 5851 5849 5847 5844 5842 5841 5839 5837 5834 5833 5831 5829 5827 5825 5823 5821 5819 5817 5815 5813 5811 5809 5808 5806 5804
5872 5871 5869 5867 5865 5864 5862 5860 5857 5855 5853 5851 5849 5846 5843 5841 5838 5836 5834 5832 5830 5828 5825 5823 5821 5819 5817 5815 5813 5810 5808 5806 5804 5801 5799 5797 5796 5794
5869 5867 5865 5863 5861 5859 5857 5855 5853 5851 5848 5846 5843 5840 5837 5834 5832 5829 5827 5825 5823 5820 5818 5816 5813 5811 5809 5807 5804 5802 5799 5797 5794 5791 5789 5787 5785 5783
5865 5863 5861 5859 5857 5855 5853 5850 5848 5845 5843 5840 5837 5835 5831 5828 5826 5823 5820 5817 5815 5813 5810 5808 5806 5803 5801 5798 5795 5792 5790 5787 5784 5782 5779 5777 5774 5772
5861 5859 5857 5855 5853 5850 5848 5845 5842 5840 5837 5834 5831 5828 5825 5822 5819 5816 5814 5811 5808 5806 5803 5800 5797 5795 5792 5789 5786 5783 5780 5777 5775 5772 5769 5766 5764 5761
5857 5855 5853 5850 5848 5845 5842 5840 5837 5834 5831 5828 5825 5822 5819 5816 5813 5810 5807 5804 5801 5798 5795 5792 5789 5786 5783 5780 5777 5774 5771 5768 5765 5762 5759 5756 5753 5751
5852 5850 5848 5845 5842 5840 5837 5834 5831 5828 5825 5822 5819 5816 5813 5809 5806 5804 5800 5797 5794 5790 5787 5784 5781 5778 5775 5771 5768 5765 5762 5759 5756 5753 5750 5747 5744 5741
5847 5845 5842 5840 5837 5834 5831 5828 5825 5822 5819 5816 5812 5809 5806 5802 5799 5796 5793 5789 5786 5783 5779 5776 5773 5770 5766 5763 5759 5756 5753 5749 5746 5743 5740 5737 5734 5731
5842 5840 5837 5834 5831 5828 5825 5822 5819 5816 5812 5809 5806 5802 5799 5795 5792 5788 5785 5781 5778 5775 5771 5768 5765 5761 5758 5755 5751 5747 5744 5740 5737 5734 5731 5727 5724 5721
5837 5834 5831 5828 5825 5822 5819 5816 5812 5809 5806 5802 5799 5795 5791 5788 5784 5780 5777 5773 5770 5767 5763 5760 5756 5753 5749 5746 5743 5739 5736 5732 5729 5725 5722 5718 5715 5712
5831 5828 5825 5822 5818 5815 5812 5809 5805 5802 5798 5795 5791 5788 5784 5780 5776 5773 5769 5765 5762 5759 5755 5751 5748 5745 5741 5738 5734 5731 5728 5724 5721 5717 5713 5710 5707 5703
5825 5821 5818 5815 5811 5808 5805 5801 5798 5794 5791 5787 5784 5780 5777 5773 5769 5765 5761 5758 5754 5751 5747 5743 5740 5736 5733 5729 5726 5723 5719 5716 5712 5709 5705 5702 5699 5695
5818 5815 5811 5808 5804 5801 5797 5794 5791 5787 5783 5780 5776 5772 5769 5765 5762 5758 5754 5751 5747 5743 5740 5736 5732 5729 5725 5721 5718 5714 5711 5708 5704 5701 5697 5694 5691 5687
5811 5808 5804 5801 5797 5794 5790 5787 5783 5780 5776 5772 5769 5765 5762 5758 5754 5751 5747 5743 5739 5736 5732 5728 5724 5721 5717 5714 5710 5707 5703 5700 5697 5693 5690 5686 5683 5680
5804 5801 5797 5794 5790 5787 5783 5780 5776 5772 5768 5765 5761 5758 5754 5751 5747 5743 5739 5735 5732 5728 5724 5721 5717 5713 5710 5706 5703 5699 5696 5692 5689 5685 5682 5679 5675 5672
5797 5793 5790 5786 5783 5779 5776 5772 5768 5765 5761 5757 5754 5750 5747 5743 5739 5735 5732 5728 5724 5721 5717 5713 5709 5706 5703 5699 5695 5692 5688 5684 5681 5678 5674 5671 5668 5665
5789 5786 5782 5779 5775 5771 5768 5764 5760 5757 5753 5750 5746 5742 5739 5735 5731 5728 5724 5720 5717 5713 5710 5706 5702 5698 5695 5692 5688 5685 5681 5677 5674 5670 5667 5663 5660 5657
5781 5778 5774 5771 5767 5763 5760 5756 5752 5749 5745 5742 5739 5735 5731 5727 5724 5720 5716 5713 5709 5706 5702 5699 5695 5691 5687 5684 5681 5677 5673 5669 5666 5663 5659 5656 5653 5650
5773 5770 5766 5763 5759 5756 5752 5748 5745 5741 5738 5734 5731 5727 5723 5720 5716 5713 5709 5705 5702 5698 5695 5691 5687 5683 5680 5677 5673 5670 5666 5663 5659 5655 5652 5649 5645 5642
5764 5761 5758 5754 5751 5747 5744 5741 5737 5734 5730 5727 5723 5719 5716 5712 5708 5705 5701 5698 5694 5691 5687 5683 5680 5676 5672 5669 5665 5662 5658 5655 5651 5648 5645 5641 5638 5635